Weather History for Stephenville, NL

Change the Weather History Date:

Monday, March 25, 2013

  Actual Average Record
Temperature  
Mean Temperature 36 °F -  
Max Temperature 45 °F 40 °F 45 °F (2013)
Min Temperature 28 °F 27 °F 2 °F (2014)
Degree Days  
Heating Degree Days 28    
Moisture  
Dew Point 26 °F    
Average Humidity 71    
Maximum Humidity 100    
Minimum Humidity 39    
Precipitation  
Precipitation 0.03 in 0.10 in - ()
Sea Level Pressure  
Sea Level Pressure 29.57 in    
Wind  
Wind Speed 9 mph ()    
Max Wind Speed 17 mph    
Max Gust Speed 25 mph    
Visibility 12.5 miles    
Events Snow    
Averages and records for this station are not official NWS values.
T = Trace of Precipitation, MM = Missing Value Source: Averaged Metar Reports

Daily Weather History Graph

Daily Weather History Graph

Search for Another Location

Airport:

Trip Planner

Search our weather history database for the weather conditions in past years. The results will help you decide how hot, cold, wet, or windy it might be!

Date:

Astronomy

Mar. 25, 2013 Rise Set
Actual Time 7:16 AM NDT 7:44 PM NDT
Civil Twilight 6:44 AM NDT 8:16 PM NDT
Nautical Twilight 6:07 AM NDT 8:53 PM NDT
Astronomical Twilight 5:28 AM NDT 9:32 PM NDT
Moon 6:06 PM NDT (3/25) 6:04 AM NDT (3/25)
Length of Visible Light 13h 31m
Length of Day
12h 28m
Waxing Gibbous, 96% of the Moon is Illuminated
Mar 25
Waxing Gibbous
Mar 27
Full
Apr 3
Last Quarter
Apr 10
New
Apr 18
First Quarter

Hourly Weather History & Observations

Time (NDT) Temp. Windchill Dew Point Humidity Pressure Visibility Wind Dir Wind Speed Gust Speed Precip Events Conditions
12:30 AM 32.0 °F 26.4 °F 32.0 °F 100% 29.41 in 15.0 mi West 5.8 mph - N/A   Overcast
1:30 AM 32.0 °F 26.4 °F 32.0 °F 100% 29.42 in 3.0 mi NE 5.8 mph - N/A Snow Light Snow Showers
2:30 AM 32.0 °F 23.0 °F 32.0 °F 100% 29.44 in 4.0 mi East 11.5 mph - N/A Snow Light Snow Showers
3:30 AM 31 °F - 30 °F 93% 29.46 in 3 mi East 10.4 mph - - Snow Light Snow Showers
3:30 AM 30.2 °F 21.3 °F 30.2 °F 100% 29.46 in 3.0 mi East 10.4 mph - N/A Snow Light Snow Showers
4:30 AM 30.2 °F 20.2 °F 28.4 °F 93% 29.49 in 3.0 mi East 12.7 mph - N/A Snow Light Snow Showers
5:30 AM 30.2 °F 19.3 °F 26.6 °F 86% 29.52 in 3.0 mi East 15.0 mph - N/A Snow Light Snow Showers
6:30 AM 30.2 °F 19.3 °F 24.8 °F 80% 29.55 in 15.0 mi ENE 15.0 mph - N/A   Mostly Cloudy
7:30 AM 28.4 °F 16.6 °F 24.8 °F 86% 29.57 in 15.0 mi ENE 16.1 mph 25.3 mph N/A   Mostly Cloudy
8:30 AM 28.4 °F 17.5 °F 23.0 °F 80% 29.60 in 15.0 mi ENE 13.8 mph 20.7 mph N/A   Scattered Clouds
9:30 AM 30 °F - 22 °F 63% 29.62 in 15 mi ENE 13.8 mph - -   Partly Cloudy
9:30 AM 30.2 °F 19.8 °F 23.0 °F 75% 29.62 in 15.0 mi ENE 13.8 mph 19.6 mph N/A   Scattered Clouds
10:30 AM 33.8 °F 23.9 °F 24.8 °F 70% 29.62 in 15.0 mi ENE 15.0 mph - N/A   Scattered Clouds
11:30 AM 35.6 °F 26.2 °F 24.8 °F 65% 29.63 in 15.0 mi East 15.0 mph 20.7 mph N/A   Mostly Cloudy
12:30 PM 37.4 °F 28.9 °F 26.6 °F 65% 29.63 in 15.0 mi ENE 13.8 mph 19.6 mph N/A   Mostly Cloudy
1:30 PM 39.2 °F 31.2 °F 24.8 °F 56% 29.62 in 15.0 mi ENE 13.8 mph 19.6 mph N/A   Mostly Cloudy
2:30 PM 41.0 °F 38.0 °F 26.6 °F 57% 29.61 in 15.0 mi East 4.6 mph - N/A   Mostly Cloudy
3:30 PM 43 °F - 29 °F 46% 29.60 in 15 mi West 9.2 mph - -   Scattered Clouds
3:30 PM 42.8 °F 37.5 °F 28.4 °F 57% 29.60 in 15.0 mi West 9.2 mph - N/A   Partly Cloudy
4:30 PM 44.6 °F 38.1 °F 21.2 °F 39% 29.60 in 15.0 mi East 13.8 mph - N/A   Mostly Cloudy
5:30 PM 42.8 °F 35.4 °F 26.6 °F 53% 29.58 in 15.0 mi North 15.0 mph - N/A   Mostly Cloudy
6:30 PM 39.2 °F 30.2 °F 26.6 °F 61% 29.60 in 15.0 mi NNW 17.3 mph - N/A   Mostly Cloudy
7:30 PM 39.2 °F 35.0 °F 23.0 °F 52% 29.60 in 15.0 mi North 5.8 mph - N/A   Mostly Cloudy
8:30 PM 35.6 °F 32.8 °F 21.2 °F 56% 29.60 in 15.0 mi ENE 3.5 mph - N/A   Partly Cloudy
9:30 PM 33 °F - 22 °F 53% 29.60 in 15 mi NW 5.8 mph - -   Scattered Clouds
9:30 PM 33.8 °F 28.6 °F 23.0 °F 65% 29.60 in 15.0 mi NW 5.8 mph - N/A   Scattered Clouds
10:30 PM 33.8 °F - 26.6 °F 75% 29.60 in 15.0 mi Calm Calm - N/A   Mostly Cloudy
11:30 PM 33.8 °F - 26.6 °F 75% 29.59 in 15.0 mi Calm Calm - N/A   Mostly Cloudy